Wind_Speed
11 11 11 11 12 12 12 12 12 13 13 13 13 13 13 14 15 16 15 15 14 12 12 13 13 13 13 13 14 15 15 14 14 14 14 14 14 14 13 13 13 13 12 12
12 11 11 12 12 12 12 12 12 13 14 14 14 14 15 15 15 17 17 15 14 13 12 12 13 14 14 15 15 15 16 15 15 15 15 14 14 14 14 14 13 13 13 13
11 11 11 11 11 12 12 12 12 12 13 14 14 14 15 16 16 17 17 17 16 14 13 12 13 13 14 15 16 16 15 15 15 15 15 14 14 13 13 13 14 14 13 13
11 11 11 11 12 12 12 12 13 13 13 13 14 14 14 15 16 16 16 16 15 13 13 13 13 13 13 14 15 15 15 15 15 14 14 13 13 13 13 13 13 13 13 13
11 11 12 12 12 12 12 12 13 13 13 14 14 14 13 14 14 14 15 16 15 15 14 14 14 14 14 14 15 15 14 14 14 14 13 13 13 13 13 13 13 12 13 13
12 12 13 13 13 13 13 14 14 14 14 15 14 15 13 13 13 14 15 16 16 15 15 15 14 14 14 14 14 13 14 14 14 14 14 14 13 14 14 14 14 13 13 13
13 13 13 13 14 14 14 14 14 14 15 15 14 14 13 13 13 13 14 15 15 15 15 15 15 14 13 13 13 14 14 14 14 14 14 14 14 14 14 15 14 15 15 14
14 13 13 13 14 14 14 14 14 15 14 14 14 14 12 12 12 13 13 14 14 15 15 15 15 15 15 15 14 14 13 13 14 15 14 15 15 15 15 15 15 15 15 15
15 14 14 14 14 14 14 14 15 15 15 15 14 13 12 12 13 13 13 14 14 14 15 15 15 15 15 15 15 15 14 14 14 15 15 14 15 15 15 16 16 16 16 15
15 15 14 14 15 15 15 15 15 15 16 15 14 13 12 11 12 12 13 13 14 14 14 15 15 15 15 15 15 15 15 15 14 14 15 15 15 15 15 15 16 16 16 16
17 16 15 15 16 16 15 16 16 16 16 16 15 13 12 11 11 12 12 13 13 13 14 15 15 14 14 14 15 15 16 16 16 16 16 16 16 15 16 16 16 16 16 16
17 18 16 16 16 17 17 17 17 17 16 16 17 13 13 12 12 12 13 13 13 13 13 14 14 14 14 14 15 16 16 17 17 17 17 16 16 16 16 16 17 17 17 17
18 19 18 17 17 17 18 18 17 18 18 18 17 14 13 12 12 13 13 13 13 14 13 14 14 14 14 15 15 17 17 17 16 16 16 16 17 16 16 16 16 16 17 16
19 20 19 19 18 18 18 19 19 20 20 19 17 16 13 13 13 13 14 14 14 14 14 14 14 14 14 15 15 16 17 17 17 17 17 17 17 17 16 16 16 16 16 16
21 21 20 20 20 19 19 19 20 20 20 20 17 16 13 14 15 15 15 14 14 14 14 14 14 14 15 15 15 15 16 17 17 17 17 16 16 17 16 16 16 16 16 16
22 22 22 21 21 21 20 20 20 19 19 19 18 17 16 16 16 16 16 15 15 14 14 15 15 15 15 15 15 16 16 16 16 16 16 16 16 16 16 16 15 15 16 16
24 24 23 22 23 23 22 19 20 20 19 19 19 18 17 17 17 16 16 16 16 15 15 15 15 15 15 15 15 15 15 15 15 15 16 16 16 15 15 15 15 15 15 15
25 25 25 24 24 25 21 20 20 20 19 19 19 18 17 17 17 17 16 15 15 15 16 16 15 15 15 15 15 15 15 15 15 15 15 15 15 15 15 15 15 15 15 15
26 26 26 26 25 23 21 20 20 20 19 18 18 18 17 17 17 17 17 16 16 15 15 15 14 15 15 15 15 15 15 15 14 14 14 15 15 15 15 15 15 15 15 16
26 26 26 26 25 24 20 21 21 22 20 19 19 18 18 17 17 17 17 16 16 15 15 15 14 14 14 14 14 14 15 14 14 14 14 14 15 15 15 15 15 16 16 16
26 27 27 27 26 23 22 22 22 22 20 20 19 19 18 17 17 16 16 16 16 15 15 15 14 15 14 14 14 14 14 14 14 14 15 15 15 14 14 15 15 16 16 16
26 27 27 27 27 24 23 23 23 23 22 21 21 19 18 18 17 16 16 17 16 16 16 16 16 16 16 15 15 14 14 15 15 15 15 15 14 14 14 14 14 15 16 15
27 27 27 27 26 24 24 23 23 23 22 21 20 20 19 19 18 18 18 18 18 18 18 17 17 17 17 16 16 15 15 15 16 16 16 15 14 14 14 15 15 15 16 16
27 27 27 27 26 25 25 24 23 23 23 22 21 20 20 19 19 19 19 19 19 18 19 18 17 17 17 17 17 15 16 16 16 16 16 16 15 15 16 16 16 16 16 16
27 26 26 26 25 26 25 25 25 24 24 23 21 20 21 20 20 20 19 19 19 19 19 20 19 19 18 17 17 17 16 16 17 17 17 17 17 17 17 17 17 17 17 17
28 27 27 27 26 27 26 25 25 25 25 23 23 22 22 22 22 21 21 20 20 19 19 20 20 19 18 18 18 18 18 18 17 17 17 18 18 18 18 18 18 18 18 18
Wind_Direction
276 274 274 274 273 272 269 267 265 265 265 266 268 268 265 262 260 261 262 260 258 258 255 257 256 254 252 250 249 249 251 252 252 253 254 254 253 250 252 254 255 260 261 264
272 271 272 270 272 272 269 267 268 267 266 266 268 268 268 264 261 262 262 258 258 258 254 255 254 253 251 249 250 251 250 250 252 252 253 254 252 250 252 254 255 257 259 262
274 270 269 268 269 271 269 270 270 269 269 268 268 267 266 264 261 261 261 259 257 257 255 253 251 249 248 250 252 253 253 250 249 251 253 255 253 252 253 255 256 256 256 259
275 272 270 271 271 273 273 273 272 272 271 269 271 272 268 265 263 262 259 257 257 255 256 256 256 253 252 252 252 254 252 250 251 252 252 253 251 252 253 255 258 258 257 258
275 273 273 273 273 273 276 275 275 275 275 274 273 275 272 267 264 263 261 258 258 257 258 259 259 258 257 257 253 251 250 251 252 252 251 251 251 252 253 255 258 260 261 260
270 269 271 272 273 275 276 276 277 276 277 277 278 277 273 269 266 262 260 259 260 260 262 262 260 258 257 255 252 250 249 251 250 249 249 250 252 254 253 254 256 258 259 260
269 270 270 271 273 276 276 277 280 280 279 278 280 279 276 269 266 261 259 260 259 259 261 261 259 256 252 250 251 252 251 249 250 250 251 251 254 256 255 255 256 258 260 262
270 271 271 270 273 276 276 277 281 282 280 280 281 282 279 271 266 265 264 262 262 263 263 263 260 255 252 251 251 254 253 251 250 252 254 255 256 257 256 255 255 258 261 263
268 268 268 267 269 272 275 276 282 283 279 280 283 286 278 270 267 267 266 265 263 262 262 262 259 255 252 253 252 253 252 253 255 255 254 257 257 255 254 256 256 258 261 262
268 268 266 265 267 269 273 277 279 279 280 281 282 283 283 272 269 267 266 266 263 261 261 261 259 255 250 251 252 251 252 253 257 258 257 256 258 256 256 257 255 256 259 261
265 266 262 259 262 267 271 274 275 276 277 280 283 280 283 277 271 268 267 266 264 262 262 261 258 257 256 250 249 251 251 253 255 256 258 258 256 257 258 258 258 258 259 261
264 264 259 259 261 264 266 271 272 274 275 277 282 281 281 279 273 268 265 266 265 263 264 261 257 259 259 255 252 252 253 253 254 257 259 259 257 259 261 260 260 259 259 261
263 262 258 259 261 263 264 266 269 273 275 276 278 280 281 276 271 267 265 264 265 264 264 261 258 259 259 255 254 253 254 254 253 255 259 260 258 260 261 261 262 260 256 257
262 262 261 263 263 263 264 265 268 271 273 276 276 277 276 273 267 262 263 264 262 262 263 260 258 258 259 256 256 255 255 255 255 255 258 259 258 261 262 261 262 260 256 255
262 262 262 263 263 264 266 266 268 270 273 275 275 276 275 272 267 264 263 263 261 260 261 260 258 260 260 257 256 254 255 255 256 256 258 259 261 263 262 262 264 262 259 258
261 261 261 261 263 264 265 265 268 271 273 275 273 273 273 272 268 266 263 261 261 262 262 259 257 259 260 259 258 254 256 256 254 256 258 260 262 263 261 264 264 263 263 258
258 260 260 260 261 264 264 266 268 270 271 273 271 272 270 269 267 265 262 260 259 260 261 260 259 260 260 260 258 254 254 255 255 257 259 260 263 264 261 263 267 267 266 260
258 259 261 262 261 262 266 267 268 268 270 271 269 267 267 269 266 263 261 262 261 259 261 261 261 258 256 258 256 253 251 253 256 258 258 260 261 264 263 264 267 267 266 264
256 257 259 261 263 262 263 265 266 267 268 268 267 266 266 268 266 263 261 261 261 263 265 263 259 257 254 255 254 254 253 255 257 259 259 261 261 261 262 263 265 268 267 265
255 256 259 261 263 262 262 263 265 267 267 264 264 264 264 265 263 263 261 259 259 260 262 263 259 255 253 254 255 258 257 255 256 259 260 263 264 263 263 264 266 267 267 267
255 257 258 261 263 263 263 262 263 264 265 263 262 260 261 263 262 261 259 256 256 258 260 260 259 255 253 254 257 258 257 256 257 260 261 264 265 267 266 268 268 267 269 267
256 259 259 260 261 263 262 262 262 263 263 263 260 258 261 261 260 259 256 254 255 259 261 261 260 257 255 256 258 259 259 259 260 262 263 265 267 267 268 269 270 269 271 268
256 258 260 259 259 259 258 259 260 260 261 259 258 256 258 258 258 257 256 256 256 257 258 260 260 256 254 256 259 258 257 259 261 262 263 265 265 267 268 270 271 271 271 269
255 257 259 259 257 257 257 256 256 257 259 258 257 255 254 257 256 255 256 257 256 256 257 258 258 255 253 256 258 258 258 259 262 262 263 263 265 266 268 269 270 272 271 273
255 256 257 256 256 255 255 256 255 257 258 257 256 255 255 256 255 254 255 257 255 255 258 260 258 254 253 256 258 259 262 260 261 262 263 263 265 266 268 270 271 273 272 275
254 255 255 254 253 254 255 256 256 257 257 256 254 255 256 256 255 252 253 254 254 254 256 256 256 255 253 255 257 259 262 263 261 261 263 265 266 267 268 269 270 271 271 273
Height
5849 5850 5850 5850 5850 5851 5851 5852 5852 5853 5853 5853 5853 5853 5854 5854 5854 5855 5855 5856 5856 5857 5857 5857 5858 5858 5859 5860 5860 5861 5862 5862 5863 5864 5865 5866 5866 5867 5867 5868 5868 5869 5869 5870
5848 5848 5848 5847 5848 5848 5848 5849 5850 5850 5850 5850 5850 5851 5851 5851 5851 5852 5852 5852 5853 5854 5854 5854 5855 5855 5856 5856 5857 5858 5858 5859 5860 5861 5862 5863 5863 5864 5864 5865 5866 5866 5866 5867
5845 5846 5845 5845 5845 5846 5846 5846 5847 5847 5847 5846 5847 5848 5848 5848 5848 5848 5849 5849 5850 5851 5851 5851 5852 5852 5853 5853 5853 5854 5855 5856 5857 5858 5859 5860 5860 5861 5861 5862 5863 5863 5864 5864
5842 5843 5843 5843 5843 5843 5843 5844 5843 5843 5844 5844 5844 5844 5845 5844 5845 5845 5845 5846 5847 5848 5848 5848 5849 5849 5850 5850 5850 5851 5852 5853 5854 5855 5856 5857 5857 5858 5858 5859 5860 5860 5861 5861
5840 5840 5840 5840 5841 5840 5841 5840 5840 5840 5840 5840 5840 5840 5842 5841 5842 5842 5842 5843 5844 5844 5845 5845 5845 5846 5846 5847 5847 5848 5849 5850 5851 5852 5853 5854 5854 5855 5855 5856 5857 5857 5858 5858
5837 5836 5837 5837 5837 5837 5837 5837 5837 5837 5837 5837 5837 5836 5838 5838 5838 5839 5839 5839 5840 5841 5841 5841 5842 5842 5843 5844 5844 5845 5846 5847 5848 5848 5849 5850 5851 5852 5852 5853 5854 5854 5854 5855
5834 5834 5834 5834 5834 5834 5834 5834 5834 5833 5833 5834 5834 5832 5834 5834 5835 5835 5835 5835 5836 5837 5837 5838 5838 5839 5839 5840 5841 5842 5843 5843 5844 5845 5846 5847 5848 5848 5849 5850 5850 5851 5851 5851
5831 5831 5831 5831 5831 5831 5831 5831 5832 5831 5830 5830 5830 5829 5831 5831 5831 5831 5832 5832 5832 5833 5834 5834 5835 5835 5836 5837 5838 5838 5839 5840 5841 5842 5842 5843 5844 5845 5845 5846 5847 5847 5847 5848
5827 5828 5828 5828 5828 5828 5828 5828 5828 5827 5826 5826 5827 5827 5827 5827 5827 5828 5828 5828 5829 5829 5830 5830 5831 5831 5832 5833 5834 5835 5836 5837 5837 5838 5839 5839 5840 5841 5841 5842 5843 5843 5843 5844
5823 5824 5825 5825 5825 5825 5825 5825 5825 5824 5823 5823 5824 5823 5824 5824 5824 5825 5825 5825 5825 5825 5826 5826 5827 5827 5828 5829 5830 5831 5832 5833 5834 5834 5835 5836 5836 5837 5838 5838 5839 5839 5840 5840
5819 5820 5821 5821 5821 5821 5822 5822 5821 5820 5820 5820 5820 5822 5821 5820 5820 5821 5821 5821 5821 5822 5822 5822 5822 5823 5824 5825 5826 5827 5828 5829 5830 5831 5831 5832 5832 5833 5833 5834 5835 5835 5836 5836
5814 5815 5816 5817 5817 5817 5817 5817 5817 5817 5817 5816 5816 5820 5817 5817 5816 5817 5817 5817 5818 5818 5818 5818 5819 5819 5820 5821 5822 5823 5824 5825 5826 5827 5827 5827 5828 5829 5829 5830 5830 5831 5831 5832
5810 5811 5812 5813 5815 5814 5813 5813 5813 5813 5813 5812 5812 5815 5813 5813 5813 5813 5813 5814 5814 5814 5815 5815 5815 5816 5816 5817 5818 5819 5820 5821 5822 5822 5823 5823 5824 5824 5825 5825 5826 5826 5827 5827
5805 5806 5808 5809 5809 5809 5809 5809 5809 5809 5808 5808 5808 5809 5809 5809 5809 5809 5809 5810 5810 5811 5811 5811 5812 5812 5813 5813 5814 5815 5816 5816 5817 5818 5818 5819 5820 5820 5821 5821 5822 5822 5823 5823
5800 5802 5802 5803 5804 5804 5804 5805 5804 5804 5804 5804 5804 5804 5805 5805 5805 5805 5805 5806 5806 5806 5807 5807 5808 5809 5809 5809 5810 5811 5811 5812 5813 5814 5814 5815 5815 5816 5816 5817 5817 5818 5819 5819
5795 5796 5797 5798 5798 5798 5799 5800 5799 5799 5799 5799 5799 5800 5801 5800 5800 5801 5801 5802 5802 5803 5803 5803 5804 5805 5805 5806 5806 5807 5807 5808 5809 5809 5810 5811 5811 5812 5812 5813 5813 5814 5814 5815
5790 5790 5791 5792 5793 5792 5793 5795 5794 5794 5794 5794 5794 5796 5795 5796 5796 5796 5797 5797 5798 5799 5799 5800 5800 5800 5801 5802 5802 5803 5804 5804 5805 5806 5806 5807 5807 5808 5808 5809 5809 5809 5810 5810
5784 5784 5785 5786 5787 5786 5791 5790 5789 5789 5789 5789 5789 5790 5790 5791 5791 5792 5792 5793 5794 5795 5795 5796 5796 5796 5797 5798 5798 5799 5800 5800 5801 5802 5802 5803 5803 5804 5804 5805 5805 5805 5805 5806
5777 5778 5778 5779 5779 5781 5784 5784 5783 5783 5784 5785 5784 5785 5786 5786 5787 5787 5788 5789 5790 5790 5791 5791 5792 5792 5793 5794 5794 5795 5796 5796 5797 5798 5798 5799 5799 5800 5800 5801 5801 5801 5801 5801
5771 5771 5773 5773 5773 5774 5779 5778 5778 5779 5779 5780 5779 5780 5781 5781 5782 5784 5784 5784 5785 5786 5786 5787 5788 5788 5789 5790 5791 5791 5792 5793 5793 5794 5795 5795 5795 5796 5796 5797 5797 5797 5797 5797
5764 5765 5766 5766 5766 5768 5772 5772 5772 5774 5775 5774 5774 5774 5775 5776 5777 5779 5779 5779 5780 5781 5782 5783 5784 5785 5785 5786 5787 5787 5788 5789 5790 5790 5791 5791 5791 5792 5792 5792 5792 5793 5793 5793
5757 5758 5759 5759 5760 5764 5765 5765 5766 5767 5767 5767 5768 5769 5770 5771 5771 5772 5774 5775 5776 5777 5777 5778 5779 5780 5781 5782 5783 5784 5784 5785 5786 5786 5786 5787 5787 5787 5788 5788 5788 5788 5788 5788
5749 5751 5751 5753 5756 5757 5757 5758 5759 5760 5761 5761 5762 5763 5764 5765 5766 5767 5768 5769 5770 5772 5773 5774 5775 5776 5777 5778 5778 5779 5780 5781 5781 5782 5782 5782 5783 5783 5784 5784 5784 5784 5784 5784
5742 5743 5744 5745 5747 5749 5750 5751 5752 5753 5754 5755 5756 5757 5758 5759 5760 5761 5762 5764 5765 5766 5767 5769 5770 5771 5772 5773 5774 5775 5775 5776 5777 5777 5778 5778 5778 5779 5779 5779 5779 5779 5779 5779
5734 5735 5736 5737 5740 5741 5743 5744 5745 5746 5747 5748 5750 5751 5752 5753 5754 5756 5757 5758 5759 5761 5762 5763 5764 5766 5767 5768 5769 5770 5771 5771 5772 5772 5773 5773 5774 5774 5774 5774 5775 5775 5775 5774
5726 5728 5729 5730 5732 5733 5735 5737 5738 5739 5740 5742 5743 5744 5745 5747 5748 5749 5751 5752 5753 5755 5756 5757 5759 5760 5762 5763 5764 5765 5766 5766 5767 5767 5768 5768 5769 5769 5769 5769 5769 5769 5769 5769